HAZ1602 ZUXC-ZUUU

Flight info

Callsign HAZ1602
Flight time 0h 56m
Altitude 32100
Route BOP01D BOPTU W162 KAKMI W144 IGNAK IGNAK2E
Aircraft A321/M-SDE3FGHIRWY/LB1

Departure

Time 2026-05-07 08:31
Airport Xichang Qingshan Airport (ZUXC)

Arrival

Time 2026-05-07 09:27
Airport Chengdu Shuangliu International Airport (ZUUU)
Time Latitude Longitude Altitude Speed Heading
2026-05-07 08:23 27.97852 102.18667 5172 ft 0 kts 89°
2026-05-07 08:24 27.97852 102.18661 5172 ft 2 kts 89°
2026-05-07 08:24 27.97852 102.18643 5172 ft 2 kts 88°
2026-05-07 08:25 27.97857 102.18622 5171 ft 2 kts 126°
2026-05-07 08:25 27.97863 102.18613 5171 ft 2 kts 141°
2026-05-07 08:25 27.97881 102.18604 5171 ft 1 kts 173°
2026-05-07 08:25 27.97888 102.18604 5171 ft 1 kts 181°
2026-05-07 08:26 27.97891 102.18604 5170 ft 0 kts 179°
2026-05-07 08:27 27.97890 102.18604 5171 ft 0 kts 179°
2026-05-07 08:27 27.97884 102.18604 5171 ft 3 kts 179°
2026-05-07 08:28 27.97846 102.18604 5171 ft 7 kts 179°
2026-05-07 08:28 27.97746 102.18607 5172 ft 13 kts 177°
2026-05-07 08:28 27.97644 102.18613 5173 ft 15 kts 177°
2026-05-07 08:28 27.97566 102.18617 5174 ft 17 kts 177°
2026-05-07 08:29 27.97392 102.18624 5175 ft 18 kts 177°
2026-05-07 08:29 27.97296 102.18600 5176 ft 13 kts 247°
2026-05-07 08:29 27.97293 102.18527 5176 ft 14 kts 273°
2026-05-07 08:29 27.97405 102.18488 5173 ft 15 kts
2026-05-07 08:30 27.97538 102.18484 5172 ft 34 kts 359°
2026-05-07 08:30 27.98018 102.18464 5167 ft 102 kts 358°
2026-05-07 08:30 27.98932 102.18431 5173 ft 158 kts 358°
2026-05-07 08:30 27.99741 102.18398 5250 ft 182 kts 357°
2026-05-07 08:31 28.01414 102.18297 6041 ft 185 kts 359°
2026-05-07 08:31 28.02695 102.18250 6715 ft 186 kts 360°
2026-05-07 08:31 28.04000 102.18208 7350 ft 187 kts 359°
2026-05-07 08:31 28.04879 102.18179 7565 ft 194 kts 359°
2026-05-07 08:32 28.06762 102.18111 7930 ft 213 kts 359°
2026-05-07 08:32 28.08291 102.18050 8210 ft 227 kts 359°
2026-05-07 08:32 28.09924 102.17986 8450 ft 245 kts 359°
2026-05-07 08:32 28.11690 102.17913 8774 ft 260 kts 359°
2026-05-07 08:33 28.12894 102.17863 9204 ft 261 kts 359°
2026-05-07 08:33 28.14717 102.17786 9898 ft 263 kts 359°
2026-05-07 08:33 28.17143 102.17685 10750 ft 267 kts 359°
2026-05-07 08:33 28.18382 102.17635 11136 ft 271 kts 359°
2026-05-07 08:34 28.20284 102.17554 11731 ft 276 kts 358°
2026-05-07 08:34 28.22855 102.17446 12506 ft 283 kts 358°
2026-05-07 08:34 28.24158 102.17391 12912 ft 286 kts 358°
2026-05-07 08:34 28.26826 102.17279 13689 ft 292 kts 358°
2026-05-07 08:35 28.28172 102.17223 14064 ft 295 kts 357°
2026-05-07 08:35 28.30910 102.17114 14841 ft 298 kts 356°
2026-05-07 08:35 28.32991 102.17030 15400 ft 301 kts 355°
2026-05-07 08:35 28.35058 102.17124 15909 ft 307 kts 12°
2026-05-07 08:36 28.36986 102.18205 16405 ft 314 kts 40°
2026-05-07 08:36 28.38294 102.20160 16860 ft 319 kts 68°
2026-05-07 08:36 28.38685 102.21749 17137 ft 321 kts 86°
2026-05-07 08:36 28.38152 102.24996 17666 ft 317 kts 124°
2026-05-07 08:37 28.37282 102.26302 17916 ft 312 kts 142°
2026-05-07 08:37 28.34799 102.27778 18475 ft 299 kts 176°
2026-05-07 08:37 28.33448 102.27859 18754 ft 292 kts 192°
2026-05-07 08:37 28.30836 102.27106 19360 ft 290 kts 201°
2026-05-07 08:38 28.28899 102.26522 19816 ft 292 kts 200°
2026-05-07 08:38 28.26916 102.25948 20264 ft 294 kts 201°
2026-05-07 08:38 28.24927 102.25378 20729 ft 295 kts 201°
2026-05-07 08:38 28.22947 102.24810 21168 ft 296 kts 201°
2026-05-07 08:39 28.21611 102.24427 21455 ft 296 kts 202°
2026-05-07 08:39 28.18944 102.23663 22012 ft 298 kts 202°
2026-05-07 08:39 28.16927 102.23086 22424 ft 299 kts 202°
2026-05-07 08:39 28.14910 102.22507 22850 ft 300 kts 203°
2026-05-07 08:40 28.12881 102.21923 23268 ft 302 kts 203°
2026-05-07 08:40 28.11535 102.21536 23551 ft 303 kts 202°
2026-05-07 08:40 28.08789 102.20752 24117 ft 306 kts 203°
2026-05-07 08:40 28.06734 102.20164 24539 ft 308 kts 202°
2026-05-07 08:41 28.04623 102.19669 24933 ft 318 kts 192°
2026-05-07 08:41 28.02342 102.19963 25296 ft 341 kts 171°
2026-05-07 08:41 28.00176 102.21237 25629 ft 366 kts 149°
2026-05-07 08:41 27.98458 102.23501 25775 ft 395 kts 123°
2026-05-07 08:42 27.97367 102.26437 25981 ft 410 kts 115°
2026-05-07 08:42 27.96390 102.29488 26155 ft 419 kts 114°
2026-05-07 08:42 27.95395 102.32595 26326 ft 428 kts 115°
2026-05-07 08:42 27.94350 102.35766 26493 ft 437 kts 115°
2026-05-07 08:43 27.93263 102.38985 26655 ft 445 kts 115°
2026-05-07 08:43 27.92130 102.42298 26817 ft 453 kts 115°
2026-05-07 08:43 27.90983 102.45637 26970 ft 462 kts 115°
2026-05-07 08:43 27.90137 102.49149 27070 ft 477 kts 98°
2026-05-07 08:44 27.90335 102.52915 27198 ft 488 kts 76°
2026-05-07 08:44 27.91557 102.56517 27352 ft 492 kts 62°
2026-05-07 08:44 27.93181 102.59940 27489 ft 498 kts 58°
2026-05-07 08:44 27.94891 102.63355 27628 ft 505 kts 58°
2026-05-07 08:45 27.96624 102.66876 27758 ft 511 kts 59°
2026-05-07 08:45 27.98314 102.70428 27898 ft 516 kts 60°
2026-05-07 08:45 27.99975 102.74018 28183 ft 517 kts 60°
2026-05-07 08:45 28.01604 102.77596 28562 ft 516 kts 60°
2026-05-07 08:46 28.03234 102.81214 28944 ft 515 kts 60°
2026-05-07 08:46 28.04847 102.84814 29325 ft 514 kts 61°
2026-05-07 08:46 28.06465 102.88431 29692 ft 514 kts 60°
2026-05-07 08:46 28.08071 102.92026 30050 ft 513 kts 60°
2026-05-07 08:47 28.09658 102.95583 30417 ft 512 kts 60°
2026-05-07 08:47 28.11267 102.99187 30785 ft 512 kts 60°
2026-05-07 08:47 28.12874 103.02795 31107 ft 512 kts 60°
2026-05-07 08:47 28.14476 103.06390 31375 ft 514 kts 60°
2026-05-07 08:48 28.16094 103.10022 31642 ft 516 kts 60°
2026-05-07 08:48 28.17688 103.13606 31907 ft 517 kts 60°
2026-05-07 08:48 28.19311 103.17255 32197 ft 518 kts 59°
2026-05-07 08:48 28.20388 103.19685 32367 ft 519 kts 59°
2026-05-07 08:49 28.22547 103.24550 32471 ft 521 kts 60°
2026-05-07 08:49 28.24186 103.28247 32500 ft 521 kts 60°
2026-05-07 08:49 28.27411 103.35537 32434 ft 520 kts 59°
2026-05-07 08:50 28.30631 103.42832 32403 ft 519 kts 59°
2026-05-07 08:50 28.33858 103.50148 32377 ft 519 kts 59°
2026-05-07 08:51 28.37078 103.57466 32356 ft 519 kts 59°
2026-05-07 08:51 28.40292 103.64784 32335 ft 519 kts 59°
2026-05-07 08:52 28.43522 103.72149 32309 ft 519 kts 60°
2026-05-07 08:52 28.46722 103.79461 32283 ft 519 kts 60°
2026-05-07 08:53 28.49924 103.86792 32258 ft 519 kts 60°
2026-05-07 08:53 28.53115 103.94119 32252 ft 519 kts 60°
2026-05-07 08:54 28.56306 104.01455 32228 ft 519 kts 60°
2026-05-07 08:54 28.59523 104.08851 32213 ft 520 kts 60°
2026-05-07 08:55 28.62721 104.16206 32187 ft 520 kts 60°
2026-05-07 08:55 28.66744 104.22867 32167 ft 506 kts 39°
2026-05-07 08:56 28.69428 104.25360 32170 ft 495 kts 27°
2026-05-07 08:56 28.72424 104.27210 32175 ft 484 kts 15°
2026-05-07 08:56 28.78795 104.28898 32176 ft 464 kts 354°
2026-05-07 08:57 28.85169 104.28654 32153 ft 459 kts 348°
2026-05-07 08:57 28.90532 104.28284 32135 ft 460 kts 348°
2026-05-07 08:58 28.97970 104.27830 32105 ft 461 kts 348°
2026-05-07 08:58 29.03294 104.27528 32080 ft 461 kts 348°
2026-05-07 08:59 29.10594 104.27119 32086 ft 462 kts 349°
2026-05-07 08:59 29.17102 104.26753 32084 ft 461 kts 348°
2026-05-07 09:00 29.23359 104.25697 32079 ft 451 kts 339°
2026-05-07 09:00 29.29288 104.23463 32088 ft 442 kts 329°
2026-05-07 09:01 29.34628 104.20227 32092 ft 434 kts 320°
2026-05-07 09:01 29.39598 104.16303 32095 ft 432 kts 318°
2026-05-07 09:02 29.43695 104.12990 32099 ft 433 kts 318°
2026-05-07 09:02 29.49427 104.08359 32111 ft 433 kts 317°
2026-05-07 09:03 29.54350 104.04380 31825 ft 433 kts 317°
2026-05-07 09:03 29.56797 104.02405 31578 ft 431 kts 317°
2026-05-07 09:03 29.58423 104.01091 31414 ft 431 kts 317°
2026-05-07 09:04 29.61672 103.98462 31092 ft 428 kts 318°
2026-05-07 09:04 29.64132 103.96471 30849 ft 429 kts 318°
2026-05-07 09:04 29.66563 103.94500 30608 ft 429 kts 318°
2026-05-07 09:04 29.68981 103.92537 30360 ft 431 kts 318°
2026-05-07 09:05 29.70630 103.91200 30200 ft 432 kts 318°
2026-05-07 09:05 29.73920 103.88530 29869 ft 434 kts 318°
2026-05-07 09:05 29.76394 103.86523 29626 ft 435 kts 318°
2026-05-07 09:05 29.78863 103.84522 29378 ft 437 kts 318°
2026-05-07 09:06 29.81364 103.82491 29142 ft 438 kts 319°
2026-05-07 09:06 29.83853 103.80467 28906 ft 439 kts 319°
2026-05-07 09:06 29.86361 103.78426 28644 ft 441 kts 319°
2026-05-07 09:06 29.88866 103.76388 28186 ft 442 kts 319°
2026-05-07 09:07 29.91357 103.74358 27530 ft 443 kts 319°
2026-05-07 09:07 29.93885 103.72297 27016 ft 439 kts 319°
2026-05-07 09:07 29.96352 103.70283 26540 ft 436 kts 319°
2026-05-07 09:07 29.98814 103.68273 26045 ft 432 kts 320°
2026-05-07 09:08 30.01245 103.66287 25535 ft 429 kts 320°
2026-05-07 09:08 30.03679 103.64298 25020 ft 425 kts 320°
2026-05-07 09:08 30.06135 103.62427 24480 ft 426 kts 327°
2026-05-07 09:08 30.08977 103.61346 23928 ft 434 kts 346°
2026-05-07 09:09 30.10969 103.61207 23581 ft 438 kts 358°
2026-05-07 09:09 30.13992 103.61893 23041 ft 443 kts 15°
2026-05-07 09:09 30.16845 103.63191 22520 ft 440 kts 19°
2026-05-07 09:09 30.19669 103.64548 22017 ft 437 kts 19°
2026-05-07 09:10 30.23372 103.66318 21346 ft 432 kts 19°
2026-05-07 09:10 30.26162 103.67632 20837 ft 429 kts 19°
2026-05-07 09:10 30.28940 103.68927 20315 ft 426 kts 19°
2026-05-07 09:10 30.31686 103.70200 19793 ft 423 kts 19°
2026-05-07 09:11 30.33503 103.71036 19448 ft 421 kts 19°
2026-05-07 09:11 30.37083 103.72684 18773 ft 418 kts 19°
2026-05-07 09:11 30.39779 103.73926 18244 ft 415 kts 20°
2026-05-07 09:11 30.42467 103.75165 17732 ft 412 kts 20°
2026-05-07 09:12 30.44235 103.75980 17391 ft 410 kts 20°
2026-05-07 09:12 30.47752 103.77605 16750 ft 407 kts 20°
2026-05-07 09:12 30.50378 103.78820 16250 ft 404 kts 21°
2026-05-07 09:12 30.52962 103.80017 15754 ft 401 kts 21°
2026-05-07 09:13 30.55527 103.81206 15286 ft 396 kts 21°
2026-05-07 09:13 30.58081 103.82390 14813 ft 392 kts 21°
2026-05-07 09:13 30.60618 103.83569 14327 ft 389 kts 21°
2026-05-07 09:13 30.63091 103.84717 13825 ft 385 kts 21°
2026-05-07 09:14 30.65582 103.85878 13498 ft 374 kts 22°
2026-05-07 09:14 30.67173 103.86623 13441 ft 363 kts 22°
2026-05-07 09:14 30.70180 103.88034 13336 ft 342 kts 21°
2026-05-07 09:14 30.72370 103.89061 13236 ft 328 kts 21°
2026-05-07 09:15 30.74453 103.90035 13124 ft 315 kts 21°
2026-05-07 09:15 30.76432 103.90962 13042 ft 301 kts 21°
2026-05-07 09:15 30.78347 103.91858 12979 ft 287 kts 22°
2026-05-07 09:15 30.80158 103.92707 12953 ft 275 kts 22°
2026-05-07 09:16 30.81889 103.93517 12856 ft 263 kts 22°
2026-05-07 09:16 30.83604 103.94320 12701 ft 262 kts 22°
2026-05-07 09:16 30.85301 103.95115 12294 ft 265 kts 23°
2026-05-07 09:16 30.87017 103.95920 11888 ft 268 kts 23°
2026-05-07 09:17 30.88181 103.96466 11595 ft 270 kts 23°
2026-05-07 09:17 30.90496 103.97553 11038 ft 273 kts 22°
2026-05-07 09:17 30.92289 103.98394 10573 ft 275 kts 22°
2026-05-07 09:17 30.93473 103.98949 10253 ft 278 kts 23°
2026-05-07 09:18 30.95905 104.00088 9595 ft 282 kts 23°
2026-05-07 09:18 30.97702 104.00938 9244 ft 279 kts 25°
2026-05-07 09:18 30.99265 104.02261 8815 ft 276 kts 54°
2026-05-07 09:18 30.99922 104.04314 8446 ft 273 kts 87°
2026-05-07 09:19 30.99489 104.06435 8129 ft 271 kts 115°
2026-05-07 09:19 30.98544 104.08324 7805 ft 269 kts 117°
2026-05-07 09:19 30.97639 104.10219 7452 ft 267 kts 117°
2026-05-07 09:19 30.96392 104.11836 7040 ft 273 kts 147°
2026-05-07 09:20 30.94562 104.12394 6698 ft 278 kts 181°
2026-05-07 09:20 30.92713 104.11742 6399 ft 278 kts 206°
2026-05-07 09:20 30.91017 104.10648 6082 ft 276 kts 207°
2026-05-07 09:20 30.89315 104.09600 5750 ft 274 kts 205°
2026-05-07 09:21 30.87597 104.08663 5425 ft 273 kts 202°
2026-05-07 09:21 30.85858 104.07797 5097 ft 271 kts 201°
2026-05-07 09:21 30.84108 104.06961 4771 ft 270 kts 200°
2026-05-07 09:21 30.82352 104.06137 4445 ft 269 kts 200°
2026-05-07 09:22 30.80621 104.05329 4126 ft 267 kts 200°
2026-05-07 09:22 30.78889 104.04520 3933 ft 259 kts 200°
2026-05-07 09:22 30.77257 104.03754 3921 ft 248 kts 200°
2026-05-07 09:22 30.75642 104.02998 3923 ft 246 kts 200°
2026-05-07 09:23 30.74094 104.02264 3912 ft 233 kts 200°
2026-05-07 09:23 30.72655 104.01585 4001 ft 213 kts 200°
2026-05-07 09:23 30.71357 104.00977 3947 ft 188 kts 199°
2026-05-07 09:23 30.70192 104.00433 3799 ft 174 kts 199°
2026-05-07 09:24 30.69081 103.99920 3598 ft 167 kts 199°
2026-05-07 09:24 30.68009 103.99424 3368 ft 163 kts 199°
2026-05-07 09:24 30.66955 103.98935 3157 ft 163 kts 199°
2026-05-07 09:24 30.65894 103.98444 2951 ft 162 kts 199°
2026-05-07 09:25 30.64845 103.97955 2747 ft 162 kts 199°
2026-05-07 09:25 30.63801 103.97469 2547 ft 161 kts 200°
2026-05-07 09:25 30.62757 103.96984 2344 ft 160 kts 200°
2026-05-07 09:25 30.61718 103.96497 2141 ft 159 kts 201°
2026-05-07 09:26 30.60693 103.96022 1936 ft 158 kts 200°
2026-05-07 09:26 30.59657 103.95542 1734 ft 157 kts 200°
2026-05-07 09:26 30.58655 103.95082 1640 ft 143 kts 200°
2026-05-07 09:26 30.57858 103.94706 1638 ft 97 kts 203°
2026-05-07 09:27 30.57397 103.94492 1638 ft 39 kts 200°
2026-05-07 09:27 30.57159 103.94443 1638 ft 27 kts 170°
2026-05-07 09:27 30.56870 103.94486 1638 ft 15 kts 149°
2026-05-07 09:28 30.56834 103.94603 1638 ft 15 kts 103°
2026-05-07 09:28 30.56871 103.94714 1638 ft 14 kts 89°
2026-05-07 09:28 30.56831 103.94826 1638 ft 15 kts 115°
2026-05-07 09:28 30.56788 103.94942 1638 ft 15 kts 111°
2026-05-07 09:29 30.56819 103.95035 1638 ft 14 kts 22°
2026-05-07 09:29 30.56891 103.95066 1638 ft 1 kts 21°
2026-05-07 09:29 30.56903 103.95071 1638 ft 0 kts 21°